This demonstration page uses our WeatherBlox Daily Observations layout. Learn more.

Left ArrowRight Arrow

41.55636, -103.73856

Hourly Observations for December 30, 2017

Temp ( °F °C ) Dew Point ( °F °C ) Humidity (%) Winds ( mph kmh ) Pressure ( in mb ) Visibility ( mi km ) Precip ( " mm )
12:27 am 00:27 Cloudy 4 -15.6 -2 -18.9 76 76 E 9 15 30.68 1039 10 16 N/A
12:37 am 00:37 Cloudy 3 -16.1 -2 -18.9 79 79 ENE 9 15 30.65 1038 10 16 N/A
12:53 am 00:53 Cloudy 3 -16.1 -2 -18.9 79 79 E 9 15 30.49 1033 10 16 N/A
1:09 am 01:09 Cloudy 3 -16.1 -2 -18.9 79 79 ENE 10 17 30.65 1038 10 16 N/A
1:53 am 01:53 Cloudy 3 -16.1 -2 -18.9 79 79 E 9 15 30.50 1033 10 16 N/A
2:53 am 02:53 Cloudy 3 -16.1 -3 -19.4 76 76 E 10 17 30.49 1032 10 16 N/A
3:53 am 03:53 Cloudy 2 -16.7 -3 -19.4 80 80 E 10 17 30.49 1032 10 16 N/A
4:48 am 04:48 Cloudy 1 -17 -2 -19 85 85 E 12 19 30.65 1038 10 16 N/A
4:53 am 04:53 Cloudy 2 -16.7 -3 -19.4 80 80 E 10 17 30.49 1032 10 16 N/A
5:01 am 05:01 Cloudy 1 -17 -2 -19 85 85 E 10 17 30.65 1038 10 16 N/A
5:53 am 05:53 Cloudy 2 -16.7 -3 -19.4 80 80 ESE 14 22 30.48 1032 10 16 N/A
6:18 am 06:18 Cloudy 1 -17 -2 -19 85 85 ESE 13 20 30.62 1037 10 16 N/A
6:53 am 06:53 Cloudy 2 -16.7 -2 -18.9 83 83 ESE 15 24 30.44 1031 10 16 N/A
7:14 am 07:14 Cloudy 1 -17 -2 -19 85 85 ESE 15 24 30.62 1037 10 16 N/A
7:53 am 07:53 Cloudy 2 -16.7 -2 -18.9 83 83 SE 16 26 30.44 1031 10 16 N/A
8:53 am 08:53 Cloudy 3 -16.1 -1 -18.3 83 83 ESE 17 28 30.42 1030 9 14 N/A
9:53 am 09:53 Cloudy 4 -15.6 -2 -18.9 76 76 SE 16 26 30.37 1028 10 16 N/A
10:09 am 10:09 Partly Cloudy 5 -15 -1 -18.3 76 76 SE 17 28 30.50 1033 10 16 N/A
10:53 am 10:53 Sunny 5 -15 -2 -18.9 72 72 SE 17 28 30.34 1027 10 16 N/A
11:53 am 11:53 Sunny 7 -13.9 N/A 73 73 SE 18 30 30.26 1025 10 16 N/A
12:53 pm 12:53 Sunny 7 -13.9 N/A 73 73 SE 17 28 30.19 1023 10 16 N/A
1:53 pm 13:53 Sunny 8 -13.3 1 -17.2 73 73 SE 21 33 30.13 1020 10 16 N/A
2:53 pm 14:53 Sunny 11 -11.7 3 -16.1 70 70 SSE 21 33 30.08 1019 10 16 N/A
3:53 pm 15:53 Mostly Cloudy with Haze 10 -12.2 4 -15.6 76 76 NNE 17 28 30.21 1023 4 6 N/A
4:00 pm 16:00 Mostly Cloudy 10 -12.2 4 -15.6 76 76 NNE 22 35 30.33 1027 7 11 N/A
4:22 pm 16:22 Cloudy with Haze 9 -13 3 -16 78 78 NE 21 33 30.33 1027 5 8 N/A
4:42 pm 16:42 Mostly Cloudy 7 -14 1 -17 78 78 NE 16 26 30.39 1029 10 16 N/A
4:53 pm 16:53 Partly Cloudy 7 -13.9 1 -17.2 76 76 ENE 17 28 30.26 1025 10 16 N/A
5:53 pm 17:53 Cloudy 7 -13.9 1 -17.2 76 76 NNE 6 9 30.35 1028 10 16 N/A
6:18 pm 18:18 Cloudy with Light Snow 7 -14 1 -17 78 78 N 7 11 30.48 1032 2 3 N/A
6:21 pm 18:21 Cloudy with Light Snow 7 -13.9 2 -16.7 80 80 N 6 9 30.48 1032 2 3 N/A
6:51 pm 18:51 Cloudy with Light Snow 7 -14 1 -17 78 78 N N/A 30.48 1032 2 3 0.01 0.25
6:53 pm 18:53 Cloudy with Light Snow 7 -13.9 2 -16.7 80 80 N N/A 30.40 1029 3 4 0.01 0.25
7:02 pm 19:02 Cloudy with Light Snow 7 -14 3 -16 85 85 N N/A 30.53 1034 4 6 N/A
7:53 pm 19:53 Cloudy with Light Snow 8 -13.3 2 -16.7 76 76 N N/A 30.42 1030 7 11 N/A
8:30 pm 20:30 Cloudy with Light Snow 9 -13 3 -16 78 78 N N/A 30.53 1034 3 4 N/A
8:44 pm 20:44 Cloudy with Light Snow 9 -13 3 -16 78 78 NNE 5 7 30.53 1034 4 6 N/A
8:53 pm 20:53 Cloudy with Light Snow 8 -13.3 3 -16.1 80 80 NNE 6 9 30.44 1031 5 8 0.01 0.25
9:53 pm 21:53 Cloudy 8 -13.3 3 -16.1 80 80 ENE 3 6 30.46 1032 10 16 N/A
10:53 pm 22:53 Cloudy 7 -13.9 2 -16.7 80 80 ESE 3 6 30.50 1033 10 16 N/A
11:53 pm 23:53 Cloudy 7 -13.9 2 -16.7 80 80 E 5 7 30.51 1033 10 16 N/A

Powered by AerisWeather